Temperature
20 20 19 19 19 18 18 18 17 17 17 17 17 17 17 17 17 16 16 16 16 16 16 16 16 16 15 15 15 15 15 15 14 13 13 13 13 13 13 13 12 12 12
20 20 19 19 19 18 18 18 17 17 17 17 16 16 16 16 16 16 16 16 16 16 15 15 15 15 15 15 15 15 14 14 14 13 13 12 12 12 12 12 12 12 12
20 20 19 19 18 18 18 17 17 17 17 16 16 16 16 16 16 16 16 16 15 15 15 15 15 15 15 15 14 14 14 14 14 13 13 12 12 12 12 11 11 11 11
20 20 19 19 18 18 18 17 17 17 16 16 16 16 16 16 15 15 15 15 15 15 14 14 14 14 14 14 14 14 14 13 13 13 12 12 12 12 11 11 11 11 11
20 19 19 19 18 18 17 17 17 16 16 16 16 16 15 15 15 15 15 15 14 14 14 14 14 14 14 14 13 13 13 13 13 13 12 12 12 12 11 11 11 10 10
20 20 19 18 18 17 17 17 16 16 16 16 15 15 15 15 15 15 14 14 14 14 14 14 13 13 13 13 13 13 13 13 12 12 12 12 12 11 11 11 11 10 10
20 19 19 18 18 17 17 16 16 16 16 15 15 15 15 15 15 14 14 14 14 14 14 13 13 13 13 13 12 12 12 12 12 12 12 12 11 11 11 11 10 10 10
19 19 19 18 18 17 17 16 16 16 15 15 15 15 15 14 14 14 14 14 13 13 13 13 13 13 12 12 12 12 12 12 11 11 11 11 11 11 11 11 10 10 10
19 19 19 18 17 17 17 16 16 15 15 15 15 14 14 14 14 14 13 13 13 13 13 12 12 12 12 12 12 12 11 11 11 11 11 11 11 10 10 10 10 10 9
19 19 18 18 17 17 16 16 15 15 15 14 14 14 14 14 13 13 13 13 13 13 12 12 12 12 11 11 11 11 11 11 11 11 10 10 10 10 10 10 10 10 9
19 19 18 17 17 16 16 15 15 15 15 14 14 14 14 13 13 13 13 12 12 12 12 12 11 11 11 11 11 11 11 11 10 10 10 10 10 10 10 10 10 10 9
19 18 18 17 16 16 15 15 15 14 14 14 14 14 13 13 13 12 12 12 12 12 12 11 11 11 11 11 11 11 11 10 10 10 10 10 10 10 10 10 9 9 9
18 18 17 17 16 16 15 15 15 14 14 14 14 13 13 13 12 12 12 12 12 12 11 11 11 11 11 11 11 10 10 10 10 10 10 10 10 10 9 9 9 9 9
18 17 17 16 16 16 15 15 15 14 14 14 13 13 13 13 12 12 12 12 11 11 11 11 11 11 11 11 10 10 10 10 10 10 10 10 10 9 9 9 9 9 9
17 17 16 16 16 15 15 15 14 14 14 14 13 13 13 13 12 12 12 11 11 11 11 11 11 11 10 10 10 10 10 10 10 10 10 9 9 9 9 9 9 9 9
17 17 16 16 15 15 15 14 14 14 13 13 13 13 13 12 12 12 12 11 11 11 11 11 11 10 10 10 10 10 10 10 10 9 9 9 9 9 9 9 9 9 8
17 17 16 16 15 15 15 14 14 14 13 13 13 13 12 12 12 12 12 11 11 11 11 11 10 10 10 10 10 10 10 9 9 9 9 9 9 9 9 9 8 8 8
17 16 16 16 15 15 15 14 14 14 14 13 13 12 12 12 12 12 11 11 11 11 10 10 10 10 10 10 10 10 9 9 9 9 9 9 9 9 9 8 8 8 8
16 16 16 15 15 15 14 14 14 14 13 13 13 13 12 12 11 11 11 11 11 11 10 10 10 10 10 10 10 9 9 9 9 9 9 9 9 9 8 8 8 8 8
16 16 15 15 15 14 14 14 14 13 13 13 13 13 12 12 11 11 11 11 11 11 10 10 10 10 10 10 10 9 9 9 9 9 9 9 8 8 8 8 8 8 8
15 15 15 14 14 14 14 14 14 13 13 13 13 12 12 12 12 11 11 11 11 10 10 10 10 10 10 10 10 9 9 9 9 9 9 8 8 8 8 8 8 8 8
15 15 14 14 14 14 14 13 13 13 13 13 13 12 12 12 12 11 11 11 10 10 10 10 10 10 10 10 9 9 9 9 9 9 9 8 8 8 8 8 8 8 8
14 14 14 14 13 13 13 13 13 13 13 13 13 12 12 12 11 11 11 11 11 10 10 10 10 10 10 9 9 9 9 9 9 8 8 8 8 8 8 8 7 7 7
14 14 13 13 13 13 13 13 13 13 13 13 13 12 12 12 12 11 11 11 11 10 10 10 10 10 9 9 9 9 9 8 8 8 8 8 8 8 7 7 7 7 7
13 13 13 13 13 13 13 13 13 13 13 13 13 12 12 12 11 11 11 11 10 10 10 10 10 9 9 9 9 9 8 8 8 8 8 7 7 7 7 7 7 7 7
13 13 13 13 13 13 13 13 13 13 13 13 12 12 12 12 11 11 11 11 10 10 10 9 9 9 9 9 8 8 8 8 8 7 7 7 7 7 7 7 7 6 6
Wind_Speed
6 5 4 4 3 3 3 3 3 3 4 4 4 4 5 4 4 4 4 4 5 4 4 4 3 2 2 2 2 2 3 4 5 2 2 3 4 5 7 9 9 9 10
7 6 5 4 4 4 4 4 4 5 4 4 4 4 4 5 4 5 5 5 5 5 4 4 4 3 4 3 3 3 3 4 5 5 2 2 3 4 5 5 7 8 9
8 7 6 5 5 5 4 4 5 5 5 4 5 5 5 5 5 5 5 5 4 4 4 4 4 5 5 4 4 4 4 4 4 5 3 2 3 3 4 5 6 5 7
9 8 7 6 5 5 5 5 6 6 6 6 6 5 5 5 5 5 5 5 5 5 5 5 4 5 4 4 4 5 5 6 5 5 4 3 3 2 4 4 4 3 3
9 9 8 6 6 5 6 6 6 6 7 6 6 6 5 5 4 5 5 5 5 5 5 5 5 7 7 5 4 4 6 5 5 5 4 3 3 3 2 2 3 3 2
10 9 8 7 7 6 6 6 7 6 6 6 6 6 6 4 6 7 6 5 4 5 4 4 5 6 8 9 9 8 7 6 5 4 3 4 3 2 2 3 3 3 1
10 9 9 8 8 7 7 7 7 6 6 6 5 6 5 5 7 7 8 5 5 4 4 4 4 5 5 5 8 10 9 9 7 6 5 3 3 3 4 4 3 3 2
10 9 9 9 9 8 7 7 6 5 5 5 5 5 5 5 7 7 8 6 5 5 4 4 4 4 4 5 6 6 6 5 5 4 4 3 3 4 4 5 5 3 3
10 10 10 10 9 8 8 7 6 6 5 4 4 4 5 4 6 7 7 5 5 5 4 4 4 4 6 7 7 6 5 4 6 8 7 6 6 7 7 5 4 4 2
11 10 10 9 9 8 8 6 5 6 5 5 4 3 3 3 4 7 7 5 5 4 3 4 5 5 6 7 6 5 5 2 3 4 5 5 5 5 6 5 5 4 3
10 10 9 9 9 8 7 6 6 6 6 5 4 3 2 3 4 6 7 4 4 4 3 2 2 5 6 6 5 4 3 3 3 3 3 3 3 2 2 2 4 4 4
10 10 9 9 8 7 8 6 6 6 6 5 4 3 1 2 3 5 7 6 6 4 2 1 0 3 4 5 3 3 4 5 3 3 3 1 1 0 0 1 2 3 2
11 10 9 8 7 7 8 8 6 6 5 4 4 3 1 0 1 4 5 6 6 3 2 1 0 2 3 2 3 3 3 3 3 3 2 1 2 2 0 1 2 2 2
11 10 9 8 7 6 6 6 6 6 5 5 5 4 3 1 1 1 2 3 4 3 1 1 2 2 2 2 2 2 2 2 3 2 2 1 0 1 1 0 0 1 1
10 9 8 8 8 6 4 3 4 4 6 7 6 6 6 4 5 6 5 3 3 2 2 2 2 2 2 2 2 2 2 2 2 1 1 1 1 1 0 0 1 1 1
10 9 8 7 6 6 6 4 4 2 2 6 7 7 5 6 8 8 7 6 5 5 4 2 1 1 1 1 1 0 1 1 1 2 2 1 1 1 1 0 1 1 1
10 10 8 8 7 7 6 6 4 2 4 2 6 9 8 9 9 8 8 6 5 6 3 2 2 2 2 2 2 2 2 1 1 2 2 1 1 1 1 1 1 1 1
9 10 9 8 8 8 7 6 6 6 4 1 1 5 8 9 9 8 7 5 2 2 2 3 3 3 3 3 3 2 2 1 1 2 1 1 1 1 1 2 2 2 2
9 8 8 7 7 7 7 6 6 6 5 4 2 2 5 6 6 6 6 4 4 3 3 3 3 3 3 3 3 3 3 3 2 2 1 1 2 1 2 2 2 3 2
7 10 9 7 7 7 7 6 6 6 6 6 6 5 4 4 3 4 4 4 4 3 4 4 3 4 4 4 3 3 3 3 3 2 2 2 2 2 2 2 2 2 2
6 8 10 8 7 8 7 7 7 7 6 6 6 7 10 7 7 6 5 5 5 5 4 4 4 4 4 3 3 4 4 3 3 3 3 3 2 2 2 2 2 2 2
6 6 6 7 7 7 7 7 7 7 7 7 5 5 11 6 5 5 5 5 5 5 4 4 4 4 4 4 4 4 4 4 3 3 3 3 2 2 2 1 1 1 1
6 6 5 5 6 8 8 7 7 7 7 7 7 6 7 7 6 6 6 6 5 5 7 7 5 4 5 6 7 6 5 4 4 4 3 3 2 2 2 2 2 2 2
6 6 7 6 6 6 7 7 7 7 8 7 7 7 7 8 7 7 6 5 5 5 7 8 7 7 8 7 7 7 7 7 6 5 4 3 3 2 2 2 2 2 3
6 6 7 7 6 6 7 7 7 7 7 7 8 7 7 7 7 7 6 6 6 6 7 9 9 9 9 9 8 7 7 6 6 5 5 3 2 2 2 2 2 2 2
6 6 6 6 6 6 6 7 7 7 7 7 7 7 7 7 7 7 6 6 6 6 6 7 9 9 9 9 8 8 7 5 5 5 4 3 2 1 1 2 2 2 3
Wind_Direction
156 148 139 133 127 115 112 107 99 86 76 73 78 77 71 67 71 77 72 68 69 56 49 55 41 46 65 56 74 97 110 121 128 111 72 74 92 98 94 88 86 86 83
155 144 138 129 118 110 102 97 99 92 83 85 80 76 71 67 71 82 79 68 68 62 50 52 39 55 57 56 78 93 106 112 128 127 105 77 86 115 111 102 93 88 85
148 142 138 134 128 121 113 104 98 96 91 81 81 78 70 66 72 79 80 74 69 63 56 62 53 64 60 59 73 88 98 105 106 122 114 86 79 100 103 96 93 86 88
148 145 143 144 140 131 117 111 105 101 96 85 78 76 71 67 68 77 81 76 71 63 57 60 60 67 69 66 79 86 97 97 99 107 104 89 81 86 103 106 96 74 81
150 149 151 147 137 125 114 108 102 98 98 90 84 73 65 66 68 81 86 85 77 67 58 54 61 73 76 75 92 98 105 105 106 109 108 99 96 107 121 123 116 104 69
153 154 148 139 133 125 115 109 102 96 92 87 82 80 69 68 76 84 94 86 81 80 74 62 61 57 65 70 77 86 106 118 122 117 114 123 135 135 133 130 125 121 97
153 151 147 145 142 137 129 117 111 106 100 93 84 80 73 65 75 85 92 95 82 80 80 73 72 57 58 74 77 75 72 85 110 130 129 140 153 171 153 135 136 132 149
152 152 151 149 144 138 130 127 122 115 110 105 96 86 75 62 74 89 94 88 82 73 74 84 83 58 62 90 94 79 67 59 81 104 135 154 159 166 161 159 158 129 86
154 155 154 149 145 141 138 136 130 122 115 113 111 98 85 59 73 96 100 96 87 71 62 70 84 75 71 89 93 89 75 53 68 83 91 97 115 128 131 118 113 117 110
162 158 152 149 148 149 146 141 133 131 127 123 111 107 105 83 84 108 114 110 101 86 59 52 66 82 85 90 98 103 97 67 61 60 55 54 66 89 117 138 149 143 142
157 149 147 149 151 149 143 139 140 138 129 129 122 109 100 92 92 117 123 119 127 117 95 56 36 76 86 89 104 118 139 135 104 90 70 46 43 50 67 111 150 153 154
148 147 150 151 154 150 142 141 145 145 140 140 131 113 71 67 87 115 127 125 128 123 126 137 320 84 82 84 94 106 115 109 105 95 89 77 70 5 315 95 120 132 157
147 151 153 151 146 147 149 153 155 155 156 161 155 153 156 87 73 108 123 131 129 122 152 186 161 84 69 58 61 81 94 97 103 112 137 211 233 232 221 44 46 64 31
151 152 153 151 147 147 151 157 161 167 170 171 168 169 168 156 156 131 117 117 112 95 73 9 22 45 57 27 30 52 79 122 134 148 189 231 253 93 99 130 111 53 21
151 153 155 154 153 150 140 139 165 181 189 181 182 175 171 186 212 188 163 157 156 146 105 60 48 45 45 31 31 37 50 80 99 132 133 116 93 97 282 308 124 112 145
155 157 160 160 156 152 143 115 60 93 154 184 179 172 182 186 179 177 169 162 156 141 116 110 124 135 163 187 179 121 77 129 157 147 137 143 155 174 209 315 121 144 182
164 166 166 166 164 164 162 159 152 60 53 115 173 174 174 172 174 173 168 166 164 145 131 159 183 202 206 199 187 180 198 215 173 141 142 157 172 187 189 224 213 181 213
166 170 171 172 172 172 174 174 171 170 171 188 206 183 178 178 180 178 169 145 140 155 177 189 205 214 208 193 188 190 194 186 159 149 152 163 170 189 208 228 223 210 217
168 172 174 173 173 174 173 172 174 176 174 174 172 188 189 178 177 180 163 162 179 196 202 202 203 200 197 191 189 185 181 185 187 174 172 189 194 190 214 230 231 229 215
179 176 173 175 175 174 175 177 180 181 178 180 187 184 164 152 172 186 190 192 194 202 202 203 207 198 188 187 186 181 180 190 193 193 200 207 205 195 213 227 224 224 234
179 180 178 178 183 183 182 184 186 185 187 192 198 192 177 182 192 195 198 204 201 199 198 198 202 195 191 187 182 181 182 197 205 204 206 211 205 206 223 221 224 227 231
174 176 183 188 187 187 188 189 187 188 193 196 199 193 187 190 193 197 203 209 206 201 191 190 196 195 190 187 183 178 182 194 206 207 206 205 199 200 203 209 219 230 231
177 180 183 190 188 186 188 190 191 192 196 199 195 186 187 202 207 204 204 204 196 192 189 184 184 187 187 187 184 177 184 200 212 207 201 203 204 207 201 206 218 226 235
189 190 192 192 189 188 191 195 198 198 197 196 194 194 195 201 206 206 202 196 192 189 187 182 181 182 179 179 181 185 190 202 205 201 192 192 201 215 213 219 230 237 243
195 197 197 195 194 194 195 197 198 199 198 196 195 196 197 196 198 199 197 188 182 181 181 179 178 179 182 182 181 185 194 199 199 194 186 173 191 205 210 219 232 246 248
196 199 202 200 198 198 198 198 199 198 196 194 193 192 191 191 193 193 187 181 180 180 176 176 176 177 180 181 181 183 187 194 200 196 177 160 168 203 219 238 255 253 256
Height
1546 1547 1547 1547 1547 1547 1547 1547 1547 1547 1547 1546 1546 1545 1545 1544 1544 1543 1542 1542 1541 1540 1540 1539 1539 1539 1539 1539 1539 1540 1540 1541 1541 1544 1545 1545 1546 1546 1546 1546 1545 1545 1544
1545 1546 1547 1547 1547 1547 1547 1547 1547 1547 1546 1546 1545 1545 1544 1544 1543 1542 1542 1541 1540 1540 1539 1539 1538 1538 1538 1538 1538 1539 1539 1540 1541 1542 1544 1545 1545 1545 1546 1546 1546 1545 1545
1544 1545 1546 1547 1547 1547 1547 1547 1547 1546 1546 1546 1545 1544 1544 1543 1543 1542 1542 1541 1540 1539 1539 1539 1538 1538 1538 1538 1538 1538 1539 1540 1541 1542 1543 1544 1545 1545 1546 1546 1546 1546 1546
1543 1544 1545 1546 1546 1547 1546 1546 1546 1546 1546 1546 1545 1545 1544 1544 1543 1543 1542 1541 1540 1540 1539 1539 1538 1538 1538 1538 1538 1539 1539 1540 1541 1542 1543 1544 1545 1545 1546 1546 1545 1546 1546
1541 1543 1544 1545 1546 1546 1546 1546 1546 1546 1546 1546 1545 1545 1545 1544 1544 1543 1542 1542 1541 1540 1540 1539 1539 1539 1539 1539 1539 1539 1540 1540 1541 1542 1543 1544 1544 1545 1545 1546 1546 1546 1546
1540 1542 1543 1544 1545 1546 1546 1546 1546 1546 1546 1546 1546 1545 1545 1544 1544 1544 1543 1542 1541 1541 1540 1540 1540 1540 1540 1540 1540 1540 1541 1541 1542 1542 1543 1543 1544 1545 1545 1546 1546 1546 1546
1539 1541 1542 1543 1544 1545 1545 1545 1545 1546 1546 1546 1546 1546 1545 1545 1545 1544 1544 1543 1542 1542 1541 1541 1540 1540 1540 1540 1541 1541 1541 1542 1543 1543 1543 1544 1544 1545 1545 1546 1546 1546 1546
1537 1539 1540 1541 1542 1543 1544 1544 1545 1545 1546 1546 1546 1546 1545 1545 1545 1545 1544 1544 1543 1542 1542 1542 1542 1541 1541 1541 1541 1541 1542 1543 1543 1544 1544 1544 1545 1545 1546 1546 1546 1547 1547
1535 1537 1538 1540 1541 1542 1542 1543 1544 1545 1545 1546 1546 1546 1545 1545 1545 1545 1545 1544 1544 1543 1543 1543 1543 1543 1543 1543 1543 1543 1543 1544 1544 1545 1545 1545 1546 1546 1546 1546 1547 1547 1547
1533 1535 1537 1538 1540 1541 1542 1543 1544 1544 1545 1546 1546 1546 1545 1545 1545 1545 1545 1545 1544 1544 1544 1544 1544 1544 1544 1545 1545 1544 1544 1545 1546 1546 1546 1546 1546 1547 1547 1547 1547 1547 1546
1531 1533 1535 1537 1539 1540 1541 1542 1543 1544 1544 1545 1545 1545 1545 1545 1545 1545 1545 1545 1545 1545 1545 1545 1545 1545 1545 1546 1546 1546 1546 1547 1547 1547 1547 1547 1547 1547 1547 1547 1547 1547 1547
1529 1531 1534 1536 1537 1539 1540 1541 1542 1543 1544 1544 1544 1545 1545 1545 1545 1545 1545 1546 1546 1546 1546 1546 1546 1546 1546 1547 1547 1547 1547 1548 1547 1548 1548 1548 1548 1548 1548 1548 1548 1547 1547
1527 1529 1532 1534 1536 1537 1538 1539 1540 1542 1543 1543 1544 1544 1544 1544 1545 1545 1545 1546 1546 1546 1546 1547 1547 1547 1547 1547 1548 1548 1548 1548 1548 1548 1548 1548 1548 1548 1548 1548 1548 1548 1547
1525 1527 1530 1532 1534 1535 1537 1538 1539 1540 1541 1542 1542 1543 1543 1544 1544 1544 1545 1545 1546 1546 1546 1547 1547 1547 1548 1548 1548 1548 1548 1548 1548 1548 1548 1548 1548 1548 1548 1548 1548 1547 1546
1522 1525 1527 1530 1532 1533 1535 1536 1537 1538 1539 1540 1540 1541 1541 1542 1543 1544 1544 1545 1545 1546 1546 1546 1547 1547 1547 1548 1548 1548 1548 1548 1548 1548 1548 1548 1548 1548 1547 1547 1547 1546 1546
1519 1522 1525 1527 1529 1530 1532 1534 1535 1536 1537 1538 1538 1539 1540 1541 1541 1542 1543 1544 1545 1545 1545 1546 1546 1546 1547 1547 1547 1547 1547 1547 1547 1547 1547 1547 1547 1547 1547 1546 1546 1546 1545
1517 1519 1521 1523 1525 1527 1529 1531 1532 1533 1534 1535 1536 1537 1538 1539 1539 1540 1541 1542 1543 1544 1544 1545 1545 1545 1546 1546 1546 1546 1546 1547 1547 1547 1546 1546 1546 1546 1546 1545 1545 1544 1544
1515 1517 1519 1520 1522 1524 1526 1528 1529 1530 1531 1532 1534 1535 1536 1537 1538 1539 1540 1541 1541 1542 1542 1543 1544 1544 1544 1544 1545 1545 1545 1546 1546 1545 1545 1545 1545 1545 1544 1544 1543 1543 1542
1512 1514 1517 1518 1520 1521 1523 1525 1527 1528 1529 1529 1530 1532 1533 1534 1535 1536 1537 1538 1539 1540 1540 1541 1542 1542 1543 1543 1543 1543 1544 1544 1544 1544 1543 1543 1543 1543 1542 1542 1541 1541 1540
1510 1511 1514 1516 1517 1518 1520 1522 1523 1525 1525 1526 1527 1528 1530 1531 1532 1533 1534 1535 1537 1538 1539 1539 1540 1541 1541 1541 1541 1541 1541 1541 1541 1541 1541 1541 1541 1540 1540 1540 1539 1539 1538
1507 1508 1510 1512 1514 1515 1517 1518 1520 1521 1522 1523 1524 1526 1527 1528 1529 1530 1531 1533 1534 1535 1536 1537 1538 1538 1539 1539 1539 1539 1539 1539 1539 1538 1538 1538 1538 1538 1538 1537 1537 1536 1535
1503 1505 1507 1509 1511 1513 1514 1516 1517 1518 1519 1521 1522 1523 1524 1525 1526 1527 1529 1530 1531 1533 1534 1535 1535 1536 1536 1536 1536 1536 1536 1536 1536 1536 1535 1535 1535 1535 1534 1534 1534 1533 1532
1500 1502 1504 1506 1508 1510 1511 1513 1514 1515 1516 1518 1519 1520 1521 1522 1523 1524 1525 1527 1528 1530 1531 1531 1532 1532 1533 1533 1533 1533 1533 1533 1533 1532 1532 1532 1532 1531 1531 1531 1530 1530 1529
1497 1499 1501 1503 1505 1506 1507 1509 1510 1511 1513 1514 1515 1516 1517 1519 1520 1521 1522 1523 1525 1526 1527 1528 1528 1529 1529 1529 1530 1530 1530 1529 1529 1529 1529 1528 1528 1528 1527 1527 1527 1526 1525
1494 1496 1497 1499 1500 1502 1503 1505 1506 1508 1509 1510 1511 1512 1514 1515 1516 1517 1518 1520 1521 1522 1523 1523 1524 1525 1525 1526 1526 1526 1526 1526 1525 1525 1524 1524 1524 1524 1523 1523 1523 1522 1521
1490 1492 1494 1495 1496 1497 1499 1500 1502 1503 1505 1506 1507 1509 1510 1511 1512 1514 1515 1516 1517 1518 1518 1519 1520 1521 1521 1521 1522 1522 1522 1521 1521 1520 1520 1520 1520 1519 1519 1519 1518 1518 1517